Flag for United Kingdom Weather past 2 weeks in Bangor, Wales, United Kingdom

57 °F

Rain. Overcast.

Feels Like: 56 °F
Forecast: 51 / 58 °F
Wind: 6 mph from West

Location: Capel Curig

Current Time: Oct 7, 2015 at 12:42:59 AM

Latest Report: Oct 7, 2015 at 12:00 AM

Visibility: 5 mi

Pressure: 29.55 "Hg

Humidity: 91%

Dew point: 54 °F

Location of BangorLocation

Historic Weather in Bangor — Graph


Bangor temperature yesterday

Maximum temperature yesterday: 62 °F (at 2:00 AM)
Minimum temperature yesterday: 51 °F (at 9:00 AM)
Average temperature yesterday: 58 °F

Past Weeks' High & Low Weather Summary

High64 °F (Sep 28, 3:00 PM)100% (Sep 26, 5:00 AM)30.65 "Hg (Sep 26, 5:00 AM)
Low34 °F (Oct 3, 7:00 AM)53% (Sep 27, 4:00 PM)29.35 "Hg (Oct 6, 6:00 AM)
Average52 °F83%30.10 "Hg
* Reported Sep 21 9:00 PM — Oct 6 9:00 PM, Bangor, Weather by CustomWeather, © 2015

Note: Actual official high and low records may vary slightly from our data, if they occured in-between our weather recording intervals... More about our weather records


Bangor weather history for previous 24 hours

Time TempWeatherWind HumidityBarometerVisibility
9:00 PM
Tue, Oct 6
57 °FLight rain. Overcast.5 mph99%29.47 "Hg9 mi
8:00 PM58 °FRain. Overcast.No wind98%29.44 "Hg4 mi
7:00 PM58 °FLots of rain. Overcast.3 mph96%29.41 "Hg6 mi
6:00 PM59 °FLots of rain. Cloudy.6 mph95%29.38 "Hg4 mi
5:00 PM61 °FCool.1 mph90%29.38 "Hg17 mi
4:00 PM59 °FLight mixture of precip. Cloudy.6 mph91%29.35 "Hg4 mi
3:00 PM61 °FCool.5 mph85%29.35 "Hg22 mi
2:00 PM61 °FCool.6 mph85%29.35 "Hg11 mi
1:00 PM60 °FCool.9 mph85%29.35 "Hg16 mi
12:00 PM60 °FCool.6 mph79%29.35 "Hg10 mi
11:00 AM59 °FCool.5 mph86%29.38 "Hg17 mi
10:00 AM54 °FCool.2 mph99%29.38 "Hg14 mi
9:00 AM51 °FDuststorm.1 mph100%29.38 "Hg0 mi
8:00 AM52 °FDuststorm.2 mph99%29.38 "Hg0 mi
7:00 AM54 °FCool.1 mph95%29.35 "Hg11 mi
6:00 AM56 °FCool.10 mph96%29.35 "Hg7 mi
3:00 AM61 °FLots of rain. Overcast.8 mph87%29.38 "Hg4 mi
2:00 AM62 °FCool.13 mph83%29.38 "Hg28 mi
1:00 AM61 °FRain. Overcast.9 mph86%29.38 "Hg6 mi
12:00 AM61 °FRain showers. Overcast.10 mph87%29.41 "Hg16 mi
Weather by CustomWeather, © 2015

See weather overviewHow to use our weather pages